Year,Month,Day,Hour,Minute,Value (Times are PST for temperature in C)
2020,06,01,00,00,9.20
2020,06,01,00,01,9.20
2020,06,01,00,02,9.20
2020,06,01,00,03,9.20
2020,06,01,00,04,9.10
2020,06,01,00,05,9.10
2020,06,01,00,06,9.10
2020,06,01,00,07,9.10
2020,06,01,00,08,9.10
2020,06,01,00,09,9.10
2020,06,01,00,10,9.00
2020,06,01,00,11,9.00
2020,06,01,00,12,9.00
2020,06,01,00,13,8.90
2020,06,01,00,14,8.90
2020,06,01,00,15,8.90
2020,06,01,00,16,8.90
2020,06,01,00,17,8.90
2020,06,01,00,18,8.90
2020,06,01,00,19,8.90
2020,06,01,00,20,8.80
2020,06,01,00,21,8.80
2020,06,01,00,22,8.80
2020,06,01,00,23,8.80
2020,06,01,00,24,8.80
2020,06,01,00,25,8.80
2020,06,01,00,26,8.80
2020,06,01,00,27,8.70
2020,06,01,00,28,8.70
2020,06,01,00,29,8.70
2020,06,01,00,30,8.70
2020,06,01,00,31,8.60
2020,06,01,00,32,8.60
2020,06,01,00,33,8.60
2020,06,01,00,34,8.60
2020,06,01,00,35,8.50
2020,06,01,00,36,8.50
2020,06,01,00,37,8.50
2020,06,01,00,38,8.50
2020,06,01,00,39,8.40
2020,06,01,00,40,8.40
2020,06,01,00,41,8.40
2020,06,01,00,42,8.40
2020,06,01,00,43,8.40
2020,06,01,00,44,8.40
2020,06,01,00,45,8.40
2020,06,01,00,46,8.30
2020,06,01,00,47,8.30
2020,06,01,00,48,8.30
2020,06,01,00,49,8.30
2020,06,01,00,50,8.30
2020,06,01,00,51,8.30
2020,06,01,00,52,8.30
2020,06,01,00,53,8.30
2020,06,01,00,54,8.30
2020,06,01,00,55,8.20
2020,06,01,00,56,8.20
2020,06,01,00,57,8.20
2020,06,01,00,58,8.20
2020,06,01,00,59,8.20
2020,06,01,01,00,8.20
2020,06,01,01,01,8.20
2020,06,01,01,02,8.20
2020,06,01,01,03,8.20
2020,06,01,01,04,8.10
2020,06,01,01,05,8.10
2020,06,01,01,06,8.10
2020,06,01,01,07,8.10
2020,06,01,01,08,8.10
2020,06,01,01,09,8.10
2020,06,01,01,10,8.10
2020,06,01,01,11,8.00
2020,06,01,01,12,8.00
2020,06,01,01,13,8.00
2020,06,01,01,14,8.00
2020,06,01,01,15,8.00
2020,06,01,01,16,8.00
2020,06,01,01,17,7.90
2020,06,01,01,18,7.90
2020,06,01,01,19,7.90
2020,06,01,01,20,7.90
2020,06,01,01,21,7.90
2020,06,01,01,22,7.90
2020,06,01,01,23,7.90
2020,06,01,01,24,7.80
2020,06,01,01,25,7.80
2020,06,01,01,26,7.80
2020,06,01,01,27,7.80
2020,06,01,01,28,7.80
2020,06,01,01,29,7.80
2020,06,01,01,30,7.80
2020,06,01,01,31,7.80
2020,06,01,01,32,7.80
2020,06,01,01,33,7.80
2020,06,01,01,34,7.80
2020,06,01,01,35,7.80
2020,06,01,01,36,7.70
2020,06,01,01,37,7.70
2020,06,01,01,38,7.70
2020,06,01,01,39,7.70
2020,06,01,01,40,7.70
2020,06,01,01,41,7.70
2020,06,01,01,42,7.70
2020,06,01,01,43,7.70
2020,06,01,01,44,7.60
2020,06,01,01,45,7.60
2020,06,01,01,46,7.60
2020,06,01,01,47,7.60
2020,06,01,01,48,7.60
2020,06,01,01,49,7.60
2020,06,01,01,50,7.60
2020,06,01,01,51,7.60
2020,06,01,01,52,7.60
2020,06,01,01,53,7.60
2020,06,01,01,54,7.60
2020,06,01,01,55,7.60
2020,06,01,01,56,7.60
2020,06,01,01,57,7.50
2020,06,01,01,58,7.50
2020,06,01,01,59,7.50
2020,06,01,02,00,7.50
2020,06,01,02,01,7.50
2020,06,01,02,02,7.50
2020,06,01,02,03,7.50
2020,06,01,02,04,7.50
2020,06,01,02,05,7.40
2020,06,01,02,06,7.40
2020,06,01,02,07,7.40
2020,06,01,02,08,7.40
2020,06,01,02,09,7.40
2020,06,01,02,10,7.40
2020,06,01,02,11,7.40
2020,06,01,02,12,7.40
2020,06,01,02,13,7.40
2020,06,01,02,14,7.30
2020,06,01,02,15,7.30
2020,06,01,02,16,7.30
2020,06,01,02,17,7.30
2020,06,01,02,18,7.30
2020,06,01,02,19,7.30
2020,06,01,02,20,7.30
2020,06,01,02,21,7.30
2020,06,01,02,22,7.30
2020,06,01,02,23,7.30
2020,06,01,02,24,7.30
2020,06,01,02,25,7.30
2020,06,01,02,26,7.20
2020,06,01,02,27,7.20
2020,06,01,02,28,7.30
2020,06,01,02,29,7.20
2020,06,01,02,30,7.20
2020,06,01,02,31,7.20
2020,06,01,02,32,7.20
2020,06,01,02,33,7.20
2020,06,01,02,34,7.20
2020,06,01,02,35,7.20
2020,06,01,02,36,7.20
2020,06,01,02,37,7.10
2020,06,01,02,38,7.10
2020,06,01,02,39,7.10
2020,06,01,02,40,7.10
2020,06,01,02,41,7.10
2020,06,01,02,42,7.10
2020,06,01,02,43,7.10
2020,06,01,02,44,7.10
2020,06,01,02,45,7.10
2020,06,01,02,46,7.10
2020,06,01,02,47,7.10
2020,06,01,02,48,7.10
2020,06,01,02,49,7.00
2020,06,01,02,50,7.00
2020,06,01,02,51,7.00
2020,06,01,02,52,7.00
2020,06,01,02,53,7.00
2020,06,01,02,54,7.00
2020,06,01,02,55,7.00
2020,06,01,02,56,7.00
2020,06,01,02,57,6.90
2020,06,01,02,58,6.90
2020,06,01,02,59,7.00
2020,06,01,03,00,6.90
2020,06,01,03,01,6.90
2020,06,01,03,02,6.90
2020,06,01,03,03,6.90
2020,06,01,03,04,6.90
2020,06,01,03,05,6.90
2020,06,01,03,06,6.90
2020,06,01,03,07,6.90
2020,06,01,03,08,6.90
2020,06,01,03,09,6.90
2020,06,01,03,10,6.90
2020,06,01,03,11,6.90
2020,06,01,03,12,6.90
2020,06,01,03,13,6.90
2020,06,01,03,14,6.90
2020,06,01,03,15,6.90
2020,06,01,03,16,6.90
2020,06,01,03,17,6.90
2020,06,01,03,18,6.80
2020,06,01,03,19,6.80
2020,06,01,03,20,6.80
2020,06,01,03,21,6.80
2020,06,01,03,22,6.80
2020,06,01,03,23,6.80
2020,06,01,03,24,6.80
2020,06,01,03,25,6.80
2020,06,01,03,26,6.80
2020,06,01,03,27,6.70
2020,06,01,03,28,6.70
2020,06,01,03,29,6.70
2020,06,01,03,30,6.70
2020,06,01,03,31,6.70
2020,06,01,03,32,6.70
2020,06,01,03,33,6.70
2020,06,01,03,34,6.70
2020,06,01,03,35,6.70
2020,06,01,03,36,6.70
2020,06,01,03,37,6.70
2020,06,01,03,38,6.70
2020,06,01,03,39,6.70
2020,06,01,03,40,6.80
2020,06,01,03,41,6.80
2020,06,01,03,42,6.80
2020,06,01,03,43,6.80
2020,06,01,03,44,6.80
2020,06,01,03,45,6.90
2020,06,01,03,46,6.90
2020,06,01,03,47,7.00
2020,06,01,03,48,7.20
2020,06,01,03,49,7.30
2020,06,01,03,50,7.50
2020,06,01,03,51,7.70
2020,06,01,03,52,7.80
2020,06,01,03,53,7.90
2020,06,01,03,54,8.00
2020,06,01,03,55,8.10
2020,06,01,03,56,8.10
2020,06,01,03,57,8.20
2020,06,01,03,58,8.20
2020,06,01,03,59,8.30
2020,06,01,04,00,8.30
2020,06,01,04,01,8.40
2020,06,01,04,02,8.50
2020,06,01,04,03,8.50
2020,06,01,04,04,8.60
2020,06,01,04,05,8.70
2020,06,01,04,06,8.70
2020,06,01,04,07,8.80
2020,06,01,04,08,8.80
2020,06,01,04,09,8.90
2020,06,01,04,10,8.90
2020,06,01,04,11,9.00
2020,06,01,04,12,9.00
2020,06,01,04,13,9.10
2020,06,01,04,14,9.10
2020,06,01,04,15,9.10
2020,06,01,04,16,9.20
2020,06,01,04,17,9.20
2020,06,01,04,18,9.20
2020,06,01,04,19,9.30
2020,06,01,04,20,9.30
2020,06,01,04,21,9.30
2020,06,01,04,22,9.30
2020,06,01,04,23,9.30
2020,06,01,04,24,9.40
2020,06,01,04,25,9.40
2020,06,01,04,26,9.40
2020,06,01,04,27,9.40
2020,06,01,04,28,9.40
2020,06,01,04,29,9.40
2020,06,01,04,30,9.40
2020,06,01,04,31,9.40
2020,06,01,04,32,9.40
2020,06,01,04,33,9.40
2020,06,01,04,34,9.40
2020,06,01,04,35,9.40
2020,06,01,04,36,9.40
2020,06,01,04,37,9.40
2020,06,01,04,38,9.40
2020,06,01,04,39,9.40
2020,06,01,04,40,9.40
2020,06,01,04,41,9.40
2020,06,01,04,42,9.40
2020,06,01,04,43,9.40
2020,06,01,04,44,9.40
2020,06,01,04,45,9.40
2020,06,01,04,46,9.40
2020,06,01,04,47,9.40
2020,06,01,04,48,9.40
2020,06,01,04,49,9.40
2020,06,01,04,50,9.40
2020,06,01,04,51,9.40
2020,06,01,04,52,9.40
2020,06,01,04,53,9.40
2020,06,01,04,54,9.40
2020,06,01,04,55,9.50
2020,06,01,04,56,9.50
2020,06,01,04,57,9.50
2020,06,01,04,58,9.50
2020,06,01,04,59,9.60
2020,06,01,05,00,9.60
2020,06,01,05,01,9.60
2020,06,01,05,02,9.60
2020,06,01,05,03,9.60
2020,06,01,05,04,9.60
2020,06,01,05,05,9.60
2020,06,01,05,06,9.70
2020,06,01,05,07,9.70
2020,06,01,05,08,9.70
2020,06,01,05,09,9.70
2020,06,01,05,10,9.70
2020,06,01,05,11,9.70
2020,06,01,05,12,9.70
2020,06,01,05,13,9.70
2020,06,01,05,14,9.70
2020,06,01,05,15,9.80
2020,06,01,05,16,9.80
2020,06,01,05,17,9.80
2020,06,01,05,18,9.80
2020,06,01,05,19,9.80
2020,06,01,05,20,9.80
2020,06,01,05,21,9.80
2020,06,01,05,22,9.80
2020,06,01,05,23,9.80
2020,06,01,05,24,9.90
2020,06,01,05,25,9.90
2020,06,01,05,26,9.90
2020,06,01,05,27,9.90
2020,06,01,05,28,9.90
2020,06,01,05,29,9.90
2020,06,01,05,30,9.90
2020,06,01,05,31,9.90
2020,06,01,05,32,9.90
2020,06,01,05,33,9.90
2020,06,01,05,34,9.90
2020,06,01,05,35,10.00
2020,06,01,05,36,10.00
2020,06,01,05,37,10.00
2020,06,01,05,38,10.00
2020,06,01,05,39,10.10
2020,06,01,05,40,10.10
2020,06,01,05,41,10.10
2020,06,01,05,42,10.10
2020,06,01,05,43,10.10
2020,06,01,05,44,10.10
2020,06,01,05,45,10.10
2020,06,01,05,46,10.10
2020,06,01,05,47,10.00
2020,06,01,05,48,10.10
2020,06,01,05,49,10.10
2020,06,01,05,50,10.10
2020,06,01,05,51,10.10
2020,06,01,05,52,10.10
2020,06,01,05,53,10.10
2020,06,01,05,54,10.10
2020,06,01,05,55,10.10
2020,06,01,05,56,10.10
2020,06,01,05,57,10.10
2020,06,01,05,58,10.10
2020,06,01,05,59,10.20
2020,06,01,06,00,10.20
2020,06,01,06,01,10.20
2020,06,01,06,02,10.20
2020,06,01,06,03,10.20
2020,06,01,06,04,10.20
2020,06,01,06,05,10.20
2020,06,01,06,06,10.20
2020,06,01,06,07,10.20
2020,06,01,06,08,10.10
2020,06,01,06,09,10.10
2020,06,01,06,10,10.10
2020,06,01,06,11,10.10
2020,06,01,06,12,10.10
2020,06,01,06,13,10.00
2020,06,01,06,14,10.00
2020,06,01,06,15,10.00
2020,06,01,06,16,10.00
2020,06,01,06,17,10.00
2020,06,01,06,18,10.00
2020,06,01,06,19,10.10
2020,06,01,06,20,10.10
2020,06,01,06,21,10.10
2020,06,01,06,22,10.10
2020,06,01,06,23,10.10
2020,06,01,06,24,10.20
2020,06,01,06,25,10.20
2020,06,01,06,26,10.20
2020,06,01,06,27,10.20
2020,06,01,06,28,10.30
2020,06,01,06,29,10.30
2020,06,01,06,30,10.30
2020,06,01,06,31,10.30
2020,06,01,06,32,10.30
2020,06,01,06,33,10.30
2020,06,01,06,34,10.30
2020,06,01,06,35,10.30
2020,06,01,06,36,10.30
2020,06,01,06,37,10.30
2020,06,01,06,38,10.30
2020,06,01,06,39,10.30
2020,06,01,06,40,10.30
2020,06,01,06,41,10.30
2020,06,01,06,42,10.30
2020,06,01,06,43,10.30
2020,06,01,06,44,10.30
2020,06,01,06,45,10.20
2020,06,01,06,46,10.20
2020,06,01,06,47,10.20
2020,06,01,06,48,10.20
2020,06,01,06,49,10.20
2020,06,01,06,50,10.20
2020,06,01,06,51,10.20
2020,06,01,06,52,10.20
2020,06,01,06,53,10.20
2020,06,01,06,54,10.20
2020,06,01,06,55,10.20
2020,06,01,06,56,10.20
2020,06,01,06,57,10.30
2020,06,01,06,58,10.30
2020,06,01,06,59,10.30
2020,06,01,07,00,10.40
2020,06,01,07,01,10.40
2020,06,01,07,02,10.40
2020,06,01,07,03,10.50
2020,06,01,07,04,10.50
2020,06,01,07,05,10.50
2020,06,01,07,06,10.60
2020,06,01,07,07,10.60
2020,06,01,07,08,10.60
2020,06,01,07,09,10.60
2020,06,01,07,10,10.70
2020,06,01,07,11,10.70
2020,06,01,07,12,10.70
2020,06,01,07,13,10.70
2020,06,01,07,14,10.80
2020,06,01,07,15,10.80
2020,06,01,07,16,10.80
2020,06,01,07,17,10.80
2020,06,01,07,18,10.90
2020,06,01,07,19,10.90
2020,06,01,07,20,10.90
2020,06,01,07,21,11.00
2020,06,01,07,22,11.00
2020,06,01,07,23,11.10
2020,06,01,07,24,11.10
2020,06,01,07,25,11.10
2020,06,01,07,26,11.20
2020,06,01,07,27,11.20
2020,06,01,07,28,11.20
2020,06,01,07,29,11.30
2020,06,01,07,30,11.30
2020,06,01,07,31,11.40
2020,06,01,07,32,11.50
2020,06,01,07,33,11.50
2020,06,01,07,34,11.60
2020,06,01,07,35,11.70
2020,06,01,07,36,11.70
2020,06,01,07,37,11.80
2020,06,01,07,38,11.80
2020,06,01,07,39,11.90
2020,06,01,07,40,11.90
2020,06,01,07,41,12.00
2020,06,01,07,42,12.10
2020,06,01,07,43,12.10
2020,06,01,07,44,12.10
2020,06,01,07,45,12.20
2020,06,01,07,46,12.20
2020,06,01,07,47,12.20
2020,06,01,07,48,12.20
2020,06,01,07,49,12.30
2020,06,01,07,50,12.30
2020,06,01,07,51,12.40
2020,06,01,07,52,12.50
2020,06,01,07,53,12.50
2020,06,01,07,54,12.60
2020,06,01,07,55,12.60
2020,06,01,07,56,12.60
2020,06,01,07,57,12.70
2020,06,01,07,58,12.70
2020,06,01,07,59,12.80
2020,06,01,08,00,12.80
2020,06,01,08,01,12.90
2020,06,01,08,02,12.90
2020,06,01,08,03,12.90
2020,06,01,08,04,13.00
2020,06,01,08,05,13.00
2020,06,01,08,06,13.00
2020,06,01,08,07,13.10
2020,06,01,08,08,13.10
2020,06,01,08,09,13.10
2020,06,01,08,10,13.10
2020,06,01,08,11,13.10
2020,06,01,08,12,13.20
2020,06,01,08,13,13.20
2020,06,01,08,14,13.20
2020,06,01,08,15,13.20
2020,06,01,08,16,13.20
2020,06,01,08,17,13.30
2020,06,01,08,18,13.30
2020,06,01,08,19,13.30
2020,06,01,08,20,13.30
2020,06,01,08,21,13.30
2020,06,01,08,22,13.40
2020,06,01,08,23,13.40
2020,06,01,08,24,13.40
2020,06,01,08,25,13.40
2020,06,01,08,26,13.50
2020,06,01,08,27,13.50
2020,06,01,08,28,13.50
2020,06,01,08,29,13.50
2020,06,01,08,30,13.50
2020,06,01,08,31,13.50
2020,06,01,08,32,13.50
2020,06,01,08,33,13.50
2020,06,01,08,34,13.50
2020,06,01,08,35,13.50
2020,06,01,08,36,13.50
2020,06,01,08,37,13.50
2020,06,01,08,38,13.50
2020,06,01,08,39,13.50
2020,06,01,08,40,13.50
2020,06,01,08,41,13.50
2020,06,01,08,42,13.60
2020,06,01,08,43,13.60
2020,06,01,08,44,13.70
2020,06,01,08,45,13.70
2020,06,01,08,46,13.70
2020,06,01,08,47,13.80
2020,06,01,08,48,13.80
2020,06,01,08,49,13.80
2020,06,01,08,50,13.90
2020,06,01,08,51,13.90
2020,06,01,08,52,13.90
2020,06,01,08,53,13.90
2020,06,01,08,54,13.90
2020,06,01,08,55,13.90
2020,06,01,08,56,13.90
2020,06,01,08,57,13.90
2020,06,01,08,58,13.90
2020,06,01,08,59,13.90
2020,06,01,09,00,13.90
2020,06,01,09,01,14.00
2020,06,01,09,02,14.10
2020,06,01,09,03,14.10
2020,06,01,09,04,14.20
2020,06,01,09,05,14.20
2020,06,01,09,06,14.20
2020,06,01,09,07,14.30
2020,06,01,09,08,14.30
2020,06,01,09,09,14.30
2020,06,01,09,10,14.30
2020,06,01,09,11,14.40
2020,06,01,09,12,14.40
2020,06,01,09,13,14.50
2020,06,01,09,14,14.60
2020,06,01,09,15,14.60
2020,06,01,09,16,14.70
2020,06,01,09,17,14.70
2020,06,01,09,18,14.80
2020,06,01,09,19,14.80
2020,06,01,09,20,14.80
2020,06,01,09,21,14.90
2020,06,01,09,22,14.90
2020,06,01,09,23,14.90
2020,06,01,09,24,15.00
2020,06,01,09,25,15.00
2020,06,01,09,26,15.10
2020,06,01,09,27,15.10
2020,06,01,09,28,15.10
2020,06,01,09,29,15.10
2020,06,01,09,30,15.10
2020,06,01,09,31,15.10
2020,06,01,09,32,15.10
2020,06,01,09,33,15.20
2020,06,01,09,34,15.20
2020,06,01,09,35,15.30
2020,06,01,09,36,15.30
2020,06,01,09,37,15.40
2020,06,01,09,38,15.50
2020,06,01,09,39,15.50
2020,06,01,09,40,15.60
2020,06,01,09,41,15.60
2020,06,01,09,42,15.70
2020,06,01,09,43,15.70
2020,06,01,09,44,15.70
2020,06,01,09,45,15.80
2020,06,01,09,46,15.80
2020,06,01,09,47,15.80
2020,06,01,09,48,15.90
2020,06,01,09,49,15.90
2020,06,01,09,50,15.90
2020,06,01,09,51,16.00
2020,06,01,09,52,16.00
2020,06,01,09,53,16.00
2020,06,01,09,54,16.00
2020,06,01,09,55,16.00
2020,06,01,09,56,16.00
2020,06,01,09,57,16.10
2020,06,01,09,58,16.00
2020,06,01,09,59,16.00
2020,06,01,10,00,15.90
2020,06,01,10,01,15.80
2020,06,01,10,02,15.80
2020,06,01,10,03,15.70
2020,06,01,10,04,15.60
2020,06,01,10,05,15.60
2020,06,01,10,06,15.50
2020,06,01,10,07,15.50
2020,06,01,10,08,15.50
2020,06,01,10,09,15.60
2020,06,01,10,10,15.60
2020,06,01,10,11,15.60
2020,06,01,10,12,15.60
2020,06,01,10,13,15.60
2020,06,01,10,14,15.70
2020,06,01,10,15,15.70
2020,06,01,10,16,15.80
2020,06,01,10,17,15.80
2020,06,01,10,18,15.80
2020,06,01,10,19,15.80
2020,06,01,10,20,15.80
2020,06,01,10,21,15.80
2020,06,01,10,22,15.90
2020,06,01,10,23,15.90
2020,06,01,10,24,16.00
2020,06,01,10,25,16.10
2020,06,01,10,26,16.20
2020,06,01,10,27,16.30
2020,06,01,10,28,16.30
2020,06,01,10,29,16.40
2020,06,01,10,30,16.40
2020,06,01,10,31,16.40
2020,06,01,10,32,16.40
2020,06,01,10,33,16.40
2020,06,01,10,34,16.40
2020,06,01,10,35,16.50
2020,06,01,10,36,16.40
2020,06,01,10,37,16.40
2020,06,01,10,38,16.40
2020,06,01,10,39,16.40
2020,06,01,10,40,16.30
2020,06,01,10,41,16.30
2020,06,01,10,42,16.30
2020,06,01,10,43,16.20
2020,06,01,10,44,16.20
2020,06,01,10,45,16.20
2020,06,01,10,46,16.20
2020,06,01,10,47,16.20
2020,06,01,10,48,16.20
2020,06,01,10,49,16.20
2020,06,01,10,50,16.10
2020,06,01,10,51,16.10
2020,06,01,10,52,16.10
2020,06,01,10,53,16.10
2020,06,01,10,54,16.10
2020,06,01,10,55,16.10
2020,06,01,10,56,16.00
2020,06,01,10,57,16.00
2020,06,01,10,58,15.90
2020,06,01,10,59,15.80
2020,06,01,11,00,15.80
2020,06,01,11,01,15.70
2020,06,01,11,02,15.70
2020,06,01,11,03,15.70
2020,06,01,11,04,15.60
2020,06,01,11,05,15.60
2020,06,01,11,06,15.70
2020,06,01,11,07,15.80
2020,06,01,11,08,15.80
2020,06,01,11,09,15.80
2020,06,01,11,10,15.80
2020,06,01,11,11,15.80
2020,06,01,11,12,15.80
2020,06,01,11,13,15.80
2020,06,01,11,14,15.90
2020,06,01,11,15,15.90
2020,06,01,11,16,16.00
2020,06,01,11,17,16.00
2020,06,01,11,18,16.00
2020,06,01,11,19,16.10
2020,06,01,11,20,16.10
2020,06,01,11,21,16.10
2020,06,01,11,22,16.10
2020,06,01,11,23,16.10
2020,06,01,11,24,16.10
2020,06,01,11,25,16.20
2020,06,01,11,26,16.20
2020,06,01,11,27,16.20
2020,06,01,11,28,16.30
2020,06,01,11,29,16.30
2020,06,01,11,30,16.30
2020,06,01,11,31,16.30
2020,06,01,11,32,16.40
2020,06,01,11,33,16.50
2020,06,01,11,34,16.50
2020,06,01,11,35,16.50
2020,06,01,11,36,16.40
2020,06,01,11,37,16.40
2020,06,01,11,38,16.40
2020,06,01,11,39,16.40
2020,06,01,11,40,16.40
2020,06,01,11,41,16.40
2020,06,01,11,42,16.50
2020,06,01,11,43,16.50
2020,06,01,11,44,16.60
2020,06,01,11,45,16.60
2020,06,01,11,46,16.50
2020,06,01,11,47,16.50
2020,06,01,11,48,16.50
2020,06,01,11,49,16.40
2020,06,01,11,50,16.40
2020,06,01,11,51,16.40
2020,06,01,11,52,16.30
2020,06,01,11,53,16.30
2020,06,01,11,54,16.30
2020,06,01,11,55,16.30
2020,06,01,11,56,16.30
2020,06,01,11,57,16.30
2020,06,01,11,58,16.30
2020,06,01,11,59,16.30
2020,06,01,12,00,16.30
2020,06,01,12,01,16.30
2020,06,01,12,02,16.30
2020,06,01,12,03,16.30
2020,06,01,12,04,16.20
2020,06,01,12,05,16.20
2020,06,01,12,06,16.20
2020,06,01,12,07,16.20
2020,06,01,12,08,16.20
2020,06,01,12,09,16.30
2020,06,01,12,10,16.30
2020,06,01,12,11,16.30
2020,06,01,12,12,16.40
2020,06,01,12,13,16.50
2020,06,01,12,14,16.50
2020,06,01,12,15,16.60
2020,06,01,12,16,16.60
2020,06,01,12,17,16.60
2020,06,01,12,18,16.50
2020,06,01,12,19,16.40
2020,06,01,12,20,16.40
2020,06,01,12,21,16.40
2020,06,01,12,22,16.40
2020,06,01,12,23,16.40
2020,06,01,12,24,16.40
2020,06,01,12,25,16.40
2020,06,01,12,26,16.40
2020,06,01,12,27,16.40
2020,06,01,12,28,16.40
2020,06,01,12,29,16.40
2020,06,01,12,30,16.40
2020,06,01,12,31,16.40
2020,06,01,12,32,16.40
2020,06,01,12,33,16.40
2020,06,01,12,34,16.40
2020,06,01,12,35,16.40
2020,06,01,12,36,16.40
2020,06,01,12,37,16.40
2020,06,01,12,38,16.40
2020,06,01,12,39,16.40
2020,06,01,12,40,16.30
2020,06,01,12,41,16.30
2020,06,01,12,42,16.30
2020,06,01,12,43,16.40
2020,06,01,12,44,16.40
2020,06,01,12,45,16.40
2020,06,01,12,46,16.50
2020,06,01,12,47,16.40
2020,06,01,12,48,16.40
2020,06,01,12,49,16.50
2020,06,01,12,50,16.50
2020,06,01,12,51,16.50
2020,06,01,12,52,16.50
2020,06,01,12,53,16.60
2020,06,01,12,54,16.60
2020,06,01,12,55,16.60
2020,06,01,12,56,16.60
2020,06,01,12,57,16.70
2020,06,01,12,58,16.70
2020,06,01,12,59,16.70
2020,06,01,13,00,16.80
2020,06,01,13,01,16.80
2020,06,01,13,02,16.80
2020,06,01,13,03,16.80
2020,06,01,13,04,16.70
2020,06,01,13,05,16.60
2020,06,01,13,06,16.50
2020,06,01,13,07,16.40
2020,06,01,13,08,16.30
2020,06,01,13,09,16.30
2020,06,01,13,10,16.20
2020,06,01,13,11,16.20
2020,06,01,13,12,16.20
2020,06,01,13,13,16.20
2020,06,01,13,14,16.20
2020,06,01,13,15,16.20
2020,06,01,13,16,16.20
2020,06,01,13,17,16.20
2020,06,01,13,18,16.20
2020,06,01,13,19,16.10
2020,06,01,13,20,16.10
2020,06,01,13,21,16.00
2020,06,01,13,22,15.90
2020,06,01,13,23,15.80
2020,06,01,13,24,15.70
2020,06,01,13,25,15.60
2020,06,01,13,26,15.60
2020,06,01,13,27,15.50
2020,06,01,13,28,15.50
2020,06,01,13,29,15.40
2020,06,01,13,30,15.40
2020,06,01,13,31,15.40
2020,06,01,13,32,15.40
2020,06,01,13,33,15.40
2020,06,01,13,34,15.40
2020,06,01,13,35,15.40
2020,06,01,13,36,15.40
2020,06,01,13,37,15.40
2020,06,01,13,38,15.40
2020,06,01,13,39,15.40
2020,06,01,13,40,15.40
2020,06,01,13,41,15.40
2020,06,01,13,42,15.40
2020,06,01,13,43,15.40
2020,06,01,13,44,15.40
2020,06,01,13,45,15.40
2020,06,01,13,46,15.50
2020,06,01,13,47,15.60
2020,06,01,13,48,15.60
2020,06,01,13,49,15.60
2020,06,01,13,50,15.60
2020,06,01,13,51,15.70
2020,06,01,13,52,15.70
2020,06,01,13,53,15.70
2020,06,01,13,54,15.80
2020,06,01,13,55,15.80
2020,06,01,13,56,15.90
2020,06,01,13,57,15.90
2020,06,01,13,58,16.00
2020,06,01,13,59,16.00
2020,06,01,14,00,16.10
2020,06,01,14,01,16.20
2020,06,01,14,02,16.20
2020,06,01,14,03,16.20
2020,06,01,14,04,16.20
2020,06,01,14,05,16.20
2020,06,01,14,06,16.20
2020,06,01,14,07,16.30
2020,06,01,14,08,16.30
2020,06,01,14,09,16.30
2020,06,01,14,10,16.30
2020,06,01,14,11,16.30
2020,06,01,14,12,16.20
2020,06,01,14,13,16.20
2020,06,01,14,14,16.10
2020,06,01,14,15,16.10
2020,06,01,14,16,16.00
2020,06,01,14,17,15.90
2020,06,01,14,18,15.80
2020,06,01,14,19,15.70
2020,06,01,14,20,15.60
2020,06,01,14,21,15.60
2020,06,01,14,22,15.60
2020,06,01,14,23,15.50
2020,06,01,14,24,15.50
2020,06,01,14,25,15.50
2020,06,01,14,26,15.50
2020,06,01,14,27,15.50
2020,06,01,14,28,15.50
2020,06,01,14,29,15.50
2020,06,01,14,30,15.50
2020,06,01,14,31,15.50
2020,06,01,14,32,15.50
2020,06,01,14,33,15.40
2020,06,01,14,34,15.50
2020,06,01,14,35,15.50
2020,06,01,14,36,15.50
2020,06,01,14,37,15.50
2020,06,01,14,38,15.60
2020,06,01,14,39,15.70
2020,06,01,14,40,15.70
2020,06,01,14,41,15.70
2020,06,01,14,42,15.70
2020,06,01,14,43,15.70
2020,06,01,14,44,15.70
2020,06,01,14,45,15.80
2020,06,01,14,46,15.90
2020,06,01,14,47,16.00
2020,06,01,14,48,16.00
2020,06,01,14,49,16.10
2020,06,01,14,50,16.10
2020,06,01,14,51,16.20
2020,06,01,14,52,16.20
2020,06,01,14,53,16.30
2020,06,01,14,54,16.40
2020,06,01,14,55,16.30
2020,06,01,14,56,16.30
2020,06,01,14,57,16.30
2020,06,01,14,58,16.30
2020,06,01,14,59,16.30
2020,06,01,15,00,16.20
2020,06,01,15,01,16.20
2020,06,01,15,02,16.20
2020,06,01,15,03,16.20
2020,06,01,15,04,16.10
2020,06,01,15,05,16.10
2020,06,01,15,06,16.10
2020,06,01,15,07,16.00
2020,06,01,15,08,16.00
2020,06,01,15,09,16.00
2020,06,01,15,10,15.90
2020,06,01,15,11,15.90
2020,06,01,15,12,15.90
2020,06,01,15,13,15.80
2020,06,01,15,14,15.80
2020,06,01,15,15,15.80
2020,06,01,15,16,15.70
2020,06,01,15,17,15.70
2020,06,01,15,18,15.70
2020,06,01,15,19,15.70
2020,06,01,15,20,15.70
2020,06,01,15,21,15.70
2020,06,01,15,22,15.70
2020,06,01,15,23,15.70
2020,06,01,15,24,15.70
2020,06,01,15,25,15.70
2020,06,01,15,26,15.60
2020,06,01,15,27,15.60
2020,06,01,15,28,15.60
2020,06,01,15,29,15.60
2020,06,01,15,30,15.50
2020,06,01,15,31,15.50
2020,06,01,15,32,15.40
2020,06,01,15,33,15.40
2020,06,01,15,34,15.40
2020,06,01,15,35,15.40
2020,06,01,15,36,15.50
2020,06,01,15,37,15.50
2020,06,01,15,38,15.60
2020,06,01,15,39,15.60
2020,06,01,15,40,15.60
2020,06,01,15,41,15.70
2020,06,01,15,42,15.70
2020,06,01,15,43,15.70
2020,06,01,15,44,15.70
2020,06,01,15,45,15.70
2020,06,01,15,46,15.80
2020,06,01,15,47,15.80
2020,06,01,15,48,15.80
2020,06,01,15,49,15.90
2020,06,01,15,50,15.90
2020,06,01,15,51,15.90
2020,06,01,15,52,16.00
2020,06,01,15,53,16.00
2020,06,01,15,54,16.00
2020,06,01,15,55,16.00
2020,06,01,15,56,16.10
2020,06,01,15,57,16.00
2020,06,01,15,58,16.00
2020,06,01,15,59,16.00
2020,06,01,16,00,15.90
2020,06,01,16,01,15.90
2020,06,01,16,02,15.90
2020,06,01,16,03,15.80
2020,06,01,16,04,15.80
2020,06,01,16,05,15.80
2020,06,01,16,06,15.70
2020,06,01,16,07,15.70
2020,06,01,16,08,15.70
2020,06,01,16,09,15.70
2020,06,01,16,10,15.70
2020,06,01,16,11,15.60
2020,06,01,16,12,15.60
2020,06,01,16,13,15.50
2020,06,01,16,14,15.50
2020,06,01,16,15,15.40
2020,06,01,16,16,15.40
2020,06,01,16,17,15.40
2020,06,01,16,18,15.50
2020,06,01,16,19,15.50
2020,06,01,16,20,15.50
2020,06,01,16,21,15.60
2020,06,01,16,22,15.60
2020,06,01,16,23,15.70
2020,06,01,16,24,15.70
2020,06,01,16,25,15.70
2020,06,01,16,26,15.80
2020,06,01,16,27,15.80
2020,06,01,16,28,15.80
2020,06,01,16,29,15.80
2020,06,01,16,30,15.90
2020,06,01,16,31,15.80
2020,06,01,16,32,15.80
2020,06,01,16,33,15.80
2020,06,01,16,34,15.70
2020,06,01,16,35,15.70
2020,06,01,16,36,15.60
2020,06,01,16,37,15.60
2020,06,01,16,38,15.60
2020,06,01,16,39,15.60
2020,06,01,16,40,15.50
2020,06,01,16,41,15.50
2020,06,01,16,42,15.50
2020,06,01,16,43,15.50
2020,06,01,16,44,15.50
2020,06,01,16,45,15.50
2020,06,01,16,46,15.50
2020,06,01,16,47,15.50
2020,06,01,16,48,15.40
2020,06,01,16,49,15.50
2020,06,01,16,50,15.40
2020,06,01,16,51,15.40
2020,06,01,16,52,15.40
2020,06,01,16,53,15.40
2020,06,01,16,54,15.40
2020,06,01,16,55,15.40
2020,06,01,16,56,15.40
2020,06,01,16,57,15.40
2020,06,01,16,58,15.40
2020,06,01,16,59,15.40
2020,06,01,17,00,15.40
2020,06,01,17,01,15.40
2020,06,01,17,02,15.40
2020,06,01,17,03,15.40
2020,06,01,17,04,15.40
2020,06,01,17,05,15.40
2020,06,01,17,06,15.40
2020,06,01,17,07,15.40
2020,06,01,17,08,15.50
2020,06,01,17,09,15.50
2020,06,01,17,10,15.60
2020,06,01,17,11,15.60
2020,06,01,17,12,15.70
2020,06,01,17,13,15.70
2020,06,01,17,14,15.70
2020,06,01,17,15,15.70
2020,06,01,17,16,15.80
2020,06,01,17,17,15.80
2020,06,01,17,18,15.80
2020,06,01,17,19,15.80
2020,06,01,17,20,15.80
2020,06,01,17,21,15.80
2020,06,01,17,22,15.90
2020,06,01,17,23,15.90
2020,06,01,17,24,15.90
2020,06,01,17,25,16.00
2020,06,01,17,26,16.00
2020,06,01,17,27,16.10
2020,06,01,17,28,16.10
2020,06,01,17,29,16.20
2020,06,01,17,30,16.20
2020,06,01,17,31,16.20
2020,06,01,17,32,16.20
2020,06,01,17,33,16.20
2020,06,01,17,34,16.20